This is the latest recevied weather packets stored in our database for station/object KE5VT. If no packets are shown the sender has not sent any weather packets the latest 10 day(s).
| Time | Temp. | Humidity | Pressure | Rain* | Wind** | Luminosity | Snow |
|---|---|---|---|---|---|---|---|
| 1777938543 | 23.33° C | 34% | 1010.3 hPa | 0 mm | - | 9 W/m² | - |
| 1777938241 | 23.33° C | 34% | 1010.3 hPa | 0 mm | - | 11 W/m² | - |
| 1777937937 | 23.33° C | 35% | 1010.1 hPa | 0 mm | - | 14 W/m² | - |
| 1777937633 | 23.89° C | 35% | 1010.3 hPa | 0 mm | - | 13 W/m² | - |
| 1777937330 | 23.89° C | 34% | 1010.3 hPa | 0 mm | - | 16 W/m² | - |
| 1777937027 | 23.89° C | 34% | 1010.1 hPa | 0 mm | - | 16 W/m² | - |
| 1777936724 | 23.89° C | 34% | 1010.1 hPa | 0 mm | - | 17 W/m² | - |
| 1777936421 | 24.44° C | 33% | 1010.2 hPa | 0 mm | - | 20 W/m² | - |
| 1777936117 | 24.44° C | 32% | 1010 hPa | 0 mm | - | 23 W/m² | - |
| 1777935815 | 24.44° C | 32% | 1010 hPa | 0 mm | - | 26 W/m² | - |
| 1777935513 | 25° C | 31% | 1009.9 hPa | 0 mm | - | 28 W/m² | - |
| 1777935209 | 25° C | 31% | 1010 hPa | 0 mm | - | 37 W/m² | - |
| 1777934907 | 25° C | 30% | 1010.1 hPa | 0 mm | - | 30 W/m² | - |
| 1777934604 | 25° C | 30% | 1010.1 hPa | 0 mm | - | 36 W/m² | - |
| 1777934300 | 25.56° C | 30% | 1010 hPa | 0 mm | - | 39 W/m² | - |
| 1777933996 | 25.56° C | 30% | 1010.1 hPa | 0 mm | - | 150 W/m² | - |
| 1777933693 | 25.56° C | 30% | 1010.1 hPa | 0 mm | - | 143 W/m² | - |
| 1777933389 | 25.56° C | 30% | 1010.1 hPa | 0 mm | - | 164 W/m² | - |
| 1777933088 | 26.67° C | 30% | 1009.8 hPa | 0 mm | - | 187 W/m² | - |
| 1777932784 | 26.67° C | 29% | 1009.9 hPa | 0 mm | - | 176 W/m² | - |
| 1777932481 | 26.67° C | 31% | 1010.2 hPa | 0 mm | - | 194 W/m² | - |
| 1777932178 | 26.67° C | 30% | 1010.1 hPa | 0 mm | - | 232 W/m² | - |
| 1777931875 | 27.22° C | 30% | 1010.2 hPa | 0 mm | - | 247 W/m² | - |
| 1777931572 | 26.67° C | 30% | 1010.1 hPa | 0 mm | - | 262 W/m² | - |
| 1777931267 | 27.78° C | 28% | 1010 hPa | 0 mm | - | 281 W/m² | - |
* Rain latest hour (hover to see other rain measurements)
** Current wind speed in m/s (hover to see current wind gust speed)